Weather in Talin

Armenia     40°23′03″N   43°52′24″E
temp.,
°C
wind,
m/s
gust,
m/s
humid.,
%
clouds,
%
prec.,
mm/h
press.,
hPa
HPBL,
m
16 april, fri
fri1601:00+7nne456625 0.0 1018302
04:00+5n23695 0.0 101847
07:00+5nne23728 0.0 102070
10:00+10nnw115472 0.0 1019667
13:00+14s4538100 0.0 10172359
16:00+16ssw5726100 0.0 10152839
19:00+15sw353596 0.0 1016237
22:00+11se1146100 0.0 101814
17 april, sat
sat1701:00+9ene115324 0.0 101915
04:00+7nne125940 0.0 102012
07:00+7ne12628 0.0 102015
10:00+13s34438 0.0 1019807
13:00+17s55359 0.0 10181698
16:00+18sse563492 0.0 10162044
19:00+16sse2344100 0.1 1016174
22:00+13ese225298 0.2 101716
18 april, sun
sun1801:00+11ne226150 0.1 101824
04:00+9n2369100 0.1 101941
07:00+9nne237197 0.0 101955
10:00+14n225181 0.0 1019638
13:00+19ssw5633100 0.1 10152788
16:00+20wsw7729100 0.1 10132635
19:00+14n8956100 0.1 1016600
22:00+11n356615 0.4 1019116
19 april, mon
mon1901:00+10n3468100 0.0 101980
04:00+9nne347176 0.0 101957
07:00+9n3473100 0.0 102087
10:00+14nnw3254100 0.0 1019590
13:00+18sse1440100 0.0 10171949
16:00+18sse343898 0.0 10161151
19:00+18sse124391 0.0 101527
22:00+14s1152100 0.0 101613
20 april, tue
tue2001:00+14ese2252100 0.0 101612
04:00+12se1155100 0.0 101615
07:00+13sse1255100 0.0 101526
10:00+18sse6841100 0.0 1014609
13:00+20s6835100 0.0 10121261
16:00+22ssw71228100 0.0 10102777
19:00+20s5937100 0.0 1009253
22:00+16sse584691 0.1 1011151